Nellis AFB, NV

9:56 AM PDT on August 18, 2017 (GMT -0700)
Nellis Air Force Base

Weather History for KLSV - January, 2013

Change the Weather History Date:

Tuesday, January 1, 2013

  Actual Average Record
Temperature  
Mean Temperature 38 °F -  
Max Temperature 48 °F 56 °F 63 °F (2014)
Min Temperature 29 °F 34 °F 26 °F (2011)
Degree Days  
Heating Degree Days 26    
Moisture  
Dew Point 13 °F    
Average Humidity 36    
Maximum Humidity 58    
Minimum Humidity 22    
Precipitation  
Precipitation 0.00 in - - ()
Sea Level Pressure  
Sea Level Pressure 30.32 in    
Wind  
Wind Speed 6 mph (NE)    
Max Wind Speed 17 mph    
Max Gust Speed 21 mph    
Visibility 10 miles    
Events      
Averages and records for this station are not official NWS values.
T = Trace of Precipitation, MM = Missing Value Source: NWS Daily Summary

Daily Weather History Graph

Daily Weather History Graph

Search for Another Location

Airport or City:

Trip Planner

Search our weather history database for the weather conditions in past years. The results will help you decide how hot, cold, wet, or windy it might be!

Date:

Astronomy

Jan. 01, 2013 Rise Set
Actual Time 6:51 AM PST 4:36 PM PST
Civil Twilight 6:22 AM PST 5:05 PM PST
Nautical Twilight 5:50 AM PST 5:37 PM PST
Astronomical Twilight 5:19 AM PST 6:08 PM PST
Moon 9:03 PM PST (1/1) 9:13 AM PST (1/1)
Length of Visible Light 10h 42m
Length of Day
9h 45m
Waning Gibbous, 82% of the Moon is Illuminated
Jan 1
Waning Gibbous
Jan 4
Last Quarter
Jan 11
New
Jan 18
First Quarter
Jan 26
Full

Hourly Weather History & Observations

Time (PST) Temp. Windchill Dew Point Humidity Pressure Visibility Wind Dir Wind Speed Gust Speed Precip Events Conditions
12:58 AM 32.4 °F - 14.7 °F 48% 30.30 in 10.0 mi North 2.3 mph - N/A   Clear
1:58 AM 29.7 °F - 16.5 °F 58% 30.30 in 10.0 mi North 1.2 mph - N/A   Clear
2:58 AM 36.5 °F 30.3 °F 12.6 °F 37% 30.30 in 10.0 mi NE 8.1 mph - N/A   Clear
3:58 AM 33.4 °F 25.4 °F 13.3 °F 43% 30.30 in 10.0 mi ENE 10.4 mph - N/A   Clear
4:58 AM 29.8 °F 24.9 °F 13.8 °F 51% 30.31 in 10.0 mi North 4.6 mph - N/A   Clear
5:58 AM 32.0 °F - 13.5 °F 46% 30.33 in 10.0 mi Calm Calm - N/A   Clear
6:58 AM 32.2 °F 23.8 °F 12.2 °F 44% 30.35 in 10.0 mi ENE 10.4 mph - N/A   Clear
7:58 AM 33.6 °F - 12.2 °F 41% 30.39 in 10.0 mi North 2.3 mph - N/A   Clear
8:58 AM 37.8 °F - 13.8 °F 38% 30.40 in 10.0 mi Calm Calm - N/A   Clear
9:58 AM 39.9 °F 37.8 °F 14.5 °F 36% 30.40 in 10.0 mi NW 3.5 mph - N/A   Clear
10:58 AM 41.5 °F 36.4 °F 11.7 °F 30% 30.38 in 10.0 mi NE 8.1 mph - N/A   Clear
11:58 AM 43.7 °F 37.3 °F 11.8 °F 27% 30.34 in 10.0 mi ENE 12.7 mph - N/A   Clear
12:58 PM 45.5 °F 41.3 °F 10.8 °F 24% 30.30 in 10.0 mi NNE 8.1 mph - N/A   Clear
1:36 PM 48.2 °F - 10.4 °F 22% 30.26 in 10.0 mi North 12.7 mph 20.7 mph N/A   Clear
1:58 PM 48.0 °F - 11.1 °F 23% 30.28 in 10.0 mi ENE 15.0 mph 19.6 mph N/A   Clear
1:59 PM 48.2 °F - 10.4 °F 22% 30.26 in 10.0 mi NNE 17.3 mph - N/A   Clear
2:00 PM 48.2 °F - 10.4 °F 22% 30.26 in 10.0 mi North 16.1 mph - N/A   Clear
2:58 PM 47.8 °F - 11.8 °F 23% 30.27 in 10.0 mi NE 15.0 mph - N/A   Clear
3:58 PM 46.9 °F - 11.5 °F 24% 30.28 in 10.0 mi NE 8.1 mph - N/A   Clear
4:58 PM 42.6 °F 40.9 °F 12.7 °F 30% 30.30 in 10.0 mi East 3.5 mph - N/A   Clear
5:58 PM 40.1 °F 36.1 °F 13.5 °F 34% 30.31 in 10.0 mi ENE 5.8 mph - N/A   Clear
6:58 PM 35.4 °F 28.4 °F 15.3 °F 44% 30.33 in 10.0 mi ENE 9.2 mph - N/A   Clear
7:58 PM 39.4 °F 32.3 °F 13.3 °F 34% 30.33 in 10.0 mi NNE 11.5 mph - N/A   Clear
8:58 PM 38.1 °F 32.3 °F 13.6 °F 37% 30.33 in 10.0 mi North 8.1 mph - N/A   Clear
9:58 PM 37.6 °F - 13.3 °F 37% 30.35 in 10.0 mi Variable 2.3 mph - N/A   Clear
10:58 PM 34.7 °F 27.5 °F 13.6 °F 42% 30.35 in 10.0 mi ENE 9.2 mph - N/A   Clear
11:58 PM 32.4 °F 24.6 °F 14.2 °F 47% 30.35 in 10.0 mi ENE 9.2 mph - N/A   Clear